FW7501 Weather Reports


Display with metric or nautical units.
time (UTC)temp
F
wind
direction
speed
MPH
gust
MPH
rain 1hr
in
rain 24hr
in
rain mn
in
humidity
%
barometer
mb
20260507084506 49 262 4.0 9.0 0.00 0.36 0.11 70 1022.9
20260507084003 49 251 4.0 9.0 0.00 0.36 0.11 69 1022.9
20260507083505 49 254 6.0 10.0 0.00 0.36 0.11 69 1022.8
20260507083006 49 235 3.0 12.0 0.00 0.36 0.11 68 1022.7
20260507082508 49 243 6.0 12.0 0.00 0.36 0.11 68 1022.7
20260507082005 49 255 4.0 11.0 0.00 0.36 0.11 68 1022.7
20260507081505 49 226 6.0 13.0 0.00 0.36 0.11 68 1022.6
20260507081004 49 246 5.0 13.0 0.00 0.36 0.11 68 1022.7
20260507080503 49 223 7.0 16.0 0.00 0.36 0.11 67 1022.6
20260507080005 49 218 8.0 18.0 0.00 0.36 0.11 67 1022.6
20260507075505 49 241 8.0 19.0 0.00 0.36 0.11 67 1022.7
20260507075007 49 233 11.0 19.0 0.00 0.36 0.11 68 1022.8
20260507074508 49 268 4.0 11.0 0.00 0.36 0.11 69 1022.6
20260507074005 49 229 5.0 11.0 0.00 0.36 0.11 69 1022.6
20260507073502 49 254 4.0 10.0 0.00 0.36 0.11 69 1022.7
20260507073013 49 228 6.0 9.0 0.00 0.36 0.11 69 1022.6
20260507072505 49 237 4.0 9.0 0.00 0.36 0.11 70 1022.6
20260507072004 49 245 4.0 9.0 0.00 0.36 0.11 71 1022.6
20260507071509 48 241 4.0 7.0 0.00 0.36 0.11 72 1022.6
20260507071004 48 267 2.0 8.0 0.00 0.36 0.11 72 1022.6
20260507070508 48 262 4.0 8.0 0.00 0.36 0.11 72 1022.6
20260507065503 48 260 2.0 6.0 0.00 0.36 0.11 72 1022.5
20260507065001 48 260 3.0 11.0 0.00 0.36 0.11 71 1022.6
20260507064510 48 214 5.0 11.0 0.00 0.36 0.11 70 1022.6
20260507064004 48 204 4.0 11.0 0.00 0.36 0.11 70 1022.6
20260507063505 48 220 6.0 12.0 0.00 0.36 0.11 70 1022.6
20260507063006 48 245 8.0 13.0 0.00 0.36 0.11 69 1022.7
20260507062508 48 189 7.0 14.0 0.00 0.36 0.11 70 1022.7
20260507062006 49 247 10.0 14.0 0.00 0.36 0.11 69 1022.8
20260507061526 49 237 8.0 14.0 0.00 0.36 0.11 69 1022.8
20260507061008 48 222 8.0 14.0 0.00 0.36 0.11 70 1022.7
20260507060504 48 217 5.0 13.0 0.00 0.36 0.11 71 1022.7
20260507060021 48 212 7.0 14.0 0.00 0.36 0.11 71 1022.7
20260507055507 48 226 7.0 15.0 0.00 0.36 0.11 72 1022.7
20260507055004 47 180 10.0 17.0 0.00 0.36 0.11 72 1022.7
20260507054514 47 216 11.0 24.0 0.00 0.36 0.11 73 1022.8
20260507054004 48 208 15.0 24.0 0.00 0.36 0.11 70 1022.8
20260507053504 49 213 10.0 18.0 0.00 0.36 0.11 69 1022.7
20260507053006 49 243 8.0 17.0 0.00 0.36 0.11 69 1022.5
20260507052504 49 229 8.0 15.0 0.00 0.36 0.11 69 1022.4
20260507052003 49 220 7.0 16.0 0.00 0.36 0.11 69 1022.4
20260507051508 49 227 8.0 18.0 0.00 0.36 0.11 68 1022.3
20260507051007 49 202 12.0 18.0 0.00 0.36 0.11 68 1022.4
20260507050506 49 185 10.0 16.0 0.00 0.36 0.11 69 1022.4
20260507050011 49 219 6.0 16.0 0.00 0.36 0.11 69 1022.5
20260507045508 49 256 11.0 18.0 0.00 0.36 0.11 69 1022.5
20260507045006 49 243 11.0 21.0 0.00 0.36 0.11 69 1022.4
20260507044011 48 216 11.0 22.0 0.00 0.36 0.11 68 1022.4
20260507043507 48 237 11.0 22.0 0.00 0.36 0.11 67 1022.5
20260507043024 49 233 12.0 23.0 0.00 0.36 0.11 68 1022.5
20260507042512 49 223 13.0 23.0 0.00 0.36 0.11 69 1022.4
20260507042008 49 218 9.0 17.0 0.00 0.36 0.11 71 1022.5
20260507041507 48 231 10.0 17.0 0.00 0.36 0.11 71 1022.5
20260507041003 48 253 11.0 18.0 0.00 0.36 0.11 70 1022.5
20260507040504 48 195 13.0 22.0 0.00 0.36 0.11 70 1022.6
20260507040011 48 222 10.0 22.0 0.00 0.36 0.11 69 1022.5
20260507035507 48 210 11.0 20.0 0.00 0.36 0.11 69 1022.4
20260507035007 48 197 13.0 26.0 0.00 0.36 0.11 69 1022.4
20260507034514 48 230 17.0 26.0 0.00 0.36 0.11 68 1022.4
20260507034004 48 241 11.0 19.0 0.00 0.36 0.11 69 1022.4
20260507033507 48 226 14.0 22.0 0.00 0.36 0.11 68 1022.4
20260507033015 48 220 13.0 22.0 0.00 0.36 0.11 69 1022.3
20260507032504 48 191 12.0 21.0 0.00 0.36 0.11 71 1022.1
20260507032011 48 201 12.0 22.0 0.00 0.36 0.11 71 1022.3
20260507031011 47 204 15.0 24.0 0.00 0.36 0.11 73 1022.3
20260507030013 45 189 8.0 18.0 0.00 0.35 0.11 79 1022.4
20260507025504 45 202 9.0 18.0 0.00 0.35 0.11 79 1022.5
20260507025004 45 172 12.0 23.0 0.00 0.35 0.11 77 1022.6
20260507024514 45 191 12.0 23.0 0.00 0.35 0.11 75 1022.5
20260507024006 46 220 16.0 26.0 0.00 0.35 0.11 73 1022.6
20260507023505 47 219 17.0 26.0 0.00 0.35 0.11 69 1022.6
20260507023003 47 219 16.0 24.0 0.00 0.35 0.11 69 1022.6
20260507022504 48 185 11.0 22.0 0.00 0.35 0.11 72 1022.6
20260507022004 47 233 13.0 20.0 0.00 0.35 0.11 71 1022.6
20260507021504 47 238 13.0 20.0 0.00 0.35 0.11 69 1022.7
20260507021005 47 211 14.0 21.0 0.00 0.35 0.11 70 1022.7
20260507020504 47 204 13.0 21.0 0.00 0.35 0.11 71 1022.7
20260507020005 46 246 13.0 22.0 0.00 0.35 0.11 71 1022.7
20260507015504 46 201 13.0 22.0 0.00 0.35 0.11 71 1022.6
20260507015007 46 242 12.0 18.0 0.00 0.35 0.11 73 1022.7
20260507014504 46 231 11.0 18.0 0.00 0.35 0.11 74 1022.8
20260507014003 45 221 11.0 18.0 0.00 0.35 0.11 76 1022.8
20260507013504 45 204 11.0 18.0 0.00 0.35 0.11 78 1022.8
20260507013014 45 210 6.0 13.0 0.00 0.35 0.11 79 1022.9
20260507012511 44 224 9.0 13.0 0.00 0.35 0.11 80 1022.9
20260507012003 44 229 8.0 11.0 0.01 0.35 0.11 81 1022.7
20260507011504 43 231 4.0 10.0 0.01 0.35 0.11 82 1022.9
20260507011007 43 185 5.0 11.0 0.01 0.35 0.11 81 1022.9
20260507010504 43 226 7.0 13.0 0.01 0.35 0.11 81 1022.9
20260507010004 43 193 9.0 13.0 0.01 0.35 0.11 81 1023.0
20260507005508 42 195 7.0 10.0 0.01 0.35 0.11 81 1022.9
20260507005004 42 202 6.0 9.0 0.01 0.35 0.11 81 1022.8
20260507004508 42 194 4.0 8.0 0.01 0.35 0.11 81 1022.9
20260507004004 42 232 3.0 8.0 0.01 0.35 0.11 81 1022.7
20260507003508 42 212 4.0 8.0 0.01 0.35 0.11 81 1022.7
20260507003008 42 212 3.0 10.0 0.01 0.34 0.10 80 1022.8
20260507002503 42 220 4.0 12.0 0.01 0.34 0.10 80 1022.8
20260507002009 41 205 6.0 12.0 0.00 0.33 0.09 80 1022.8
20260507001510 42 214 6.0 18.0 0.02 0.33 0.09 80 1022.8
20260507001009 42 193 7.0 18.0 0.02 0.33 0.09 79 1022.6
20260507000503 42 238 9.0 15.0 0.02 0.33 0.09 80 1022.6
20260507000004 42 233 7.0 12.0 0.02 0.33 0.09 81 1022.6
20260506235504 41 235 4.0 7.0 0.02 0.33 0.09 81 1022.4
20260506235006 41 208 4.0 8.0 0.02 0.33 0.09 81 1022.5
20260506234506 40 204 3.0 12.0 0.02 0.33 0.09 81 1022.5
20260506234006 40 189 5.0 13.0 0.02 0.33 0.09 81 1022.5
20260506233505 40 227 6.0 16.0 0.03 0.33 0.09 81 1022.5
20260506233009 40 191 7.0 18.0 0.02 0.33 0.08 80 1022.6
20260506232506 40 233 10.0 31.0 0.02 0.33 0.08 79 1022.5
20260506232004 40 213 14.0 31.0 0.02 0.33 0.08 78 1022.6
20260506231519 41 251 13.0 19.0 0.00 0.31 0.07 80 1022.6
20260506231005 41 245 8.0 14.0 0.00 0.31 0.07 81 1022.3
20260506230508 41 244 5.0 13.0 0.00 0.31 0.07 82 1022.0
20260506230020 40 245 5.0 13.0 0.01 0.31 0.07 82 1022.0
20260506225507 40 260 5.0 13.0 0.03 0.31 0.07 82 1021.9
20260506225008 39 255 6.0 13.0 0.04 0.31 0.07 82 1021.7
20260506224512 39 258 5.0 19.0 0.05 0.31 0.07 81 1021.6
20260506224006 39 238 10.0 20.0 0.05 0.31 0.07 81 1021.6
20260506223504 39 216 10.0 20.0 0.04 0.30 0.06 81 1021.8
20260506223006 39 208 13.0 20.0 0.04 0.30 0.06 82 1022.0
20260506222509 39 250 7.0 13.0 0.04 0.30 0.06 82 1022.0
20260506222006 39 236 4.0 11.0 0.04 0.30 0.06 82 1021.9
20260506221507 38 233 6.0 17.0 0.04 0.30 0.06 82 1021.8
20260506221008 38 209 7.0 20.0 0.04 0.30 0.06 81 1021.7
20260506220508 38 185 11.0 22.0 0.04 0.30 0.06 81 1021.5
20260506220005 38 221 14.0 22.0 0.03 0.29 0.05 81 1021.7
20260506215507 39 199 12.0 18.0 0.02 0.28 0.03 81 1021.7
20260506215006 39 241 7.0 17.0 0.00 0.26 0.02 81 1021.6
20260506214520 39 209 3.0 5.0 0.00 0.25 0.01 82 1021.3
20260506213508 39 193 2.0 8.0 0.00 0.25 0.01 81 1020.7
20260506212506 39 175 3.0 9.0 0.00 0.25 0.01 81 1020.8
20260506212002 39 166 5.0 9.0 0.00 0.25 0.01 81 1020.8
20260506211004 39 185 5.0 9.0 0.00 0.25 0.01 81 1020.6
20260506210507 39 175 5.0 9.0 0.00 0.25 0.01 81 1020.6
20260506210016 39 198 6.0 9.0 0.00 0.25 0.01 81 1020.7
20260506205008 39 195 4.0 9.0 0.00 0.25 0.01 80 1020.4
20260506204008 39 213 5.0 11.0 0.00 0.25 0.00 80 1020.5
20260506203508 39 237 6.0 11.0 0.00 0.25 0.00 80 1020.3
20260506203012 39 233 5.0 13.0 0.00 0.25 0.00 80 1020.3
20260506202511 39 228 7.0 13.0 0.00 0.25 0.00 80 1020.1
20260506202008 38 225 8.0 13.0 0.00 0.25 0.00 80 1020.2
20260506201509 38 235 5.0 13.0 0.00 0.25 0.00 80 1020.1
20260506201008 38 224 8.0 13.0 0.00 0.25 0.00 81 1019.9
20260506200509 38 233 7.0 13.0 0.00 0.25 0.00 82 1019.8
20260506200009 38 245 5.0 9.0 0.00 0.25 0.00 82 1019.7
20260506195506 38 211 2.0 9.0 0.00 0.25 0.00 82 1019.8
20260506195009 38 227 4.0 9.0 0.00 0.25 0.00 82 1019.8
20260506194008 38 195 3.0 10.0 0.00 0.25 0.00 82 1020.0
20260506193508 38 217 4.0 10.0 0.00 0.25 0.00 82 1020.0
20260506192508 38 226 9.0 19.0 0.00 0.25 0.00 81 1019.9
20260506192010 39 251 10.0 19.0 0.00 0.25 0.00 80 1020.1
20260506191512 39 200 9.0 13.0 0.00 0.24 0.00 79 1020.3
20260506191010 39 175 4.0 9.0 0.00 0.24 0.00 79 1020.0
20260506190023 38 249 4.0 8.0 0.00 0.24 0.00 80 1019.8
20260506185509 38 269 4.0 8.0 0.00 0.24 0.00 80 1019.8
20260506185007 38 262 3.0 8.0 0.00 0.24 0.00 80 1019.7
20260506184526 38 254 2.0 8.0 0.00 0.24 0.00 80 1019.6
20260506184007 38 265 3.0 7.0 0.00 0.24 0.00 80 1019.5
20260506183015 38 240 3.0 12.0 0.00 0.24 0.00 80 1019.4
20260506182506 38 258 7.0 12.0 0.00 0.24 0.00 80 1019.4
20260506182013 38 246 6.0 10.0 0.00 0.24 0.00 80 1019.3
20260506181008 38 245 4.0 14.0 0.00 0.24 0.00 80 1019.0
20260506180511 39 268 8.0 14.0 0.00 0.24 0.00 80 1019.1
20260506174518 39 263 7.0 13.0 0.00 0.24 0.00 80 1019.1
20260506174012 39 267 5.0 15.0 0.00 0.24 0.00 79 1019.1
20260506173508 39 255 9.0 15.0 0.00 0.24 0.00 79 1019.1
20260506173008 39 245 8.0 17.0 0.00 0.24 0.00 78 1019.2
20260506172504 40 247 10.0 17.0 0.00 0.24 0.00 78 1019.2
20260506172003 40 245 12.0 17.0 0.00 0.24 0.00 78 1019.2
20260506171507 40 251 10.0 16.0 0.00 0.24 0.00 78 1019.2
20260506171005 40 241 11.0 16.0 0.00 0.24 0.00 78 1019.2
20260506170504 40 223 8.0 16.0 0.00 0.24 0.00 79 1019.3
20260506170004 39 243 8.0 13.0 0.00 0.24 0.00 79 1019.2
20260506165504 39 238 6.0 15.0 0.00 0.24 0.00 79 1019.2
20260506165005 40 239 7.0 15.0 0.00 0.24 0.00 78 1019.3
20260506164506 40 250 8.0 16.0 0.00 0.24 0.00 78 1019.2
20260506164009 40 243 8.0 16.0 0.00 0.24 0.00 77 1019.2
20260506163006 40 229 8.0 14.0 0.00 0.24 0.00 77 1019.3
20260506161504 40 197 6.0 10.0 0.00 0.24 0.00 78 1019.3
20260506161004 40 200 5.0 9.0 0.00 0.24 0.00 79 1019.2
20260506160504 40 225 3.0 9.0 0.00 0.24 0.00 79 1019.3
20260506160015 40 171 5.0 9.0 0.00 0.24 0.00 78 1019.2
20260506155505 40 185 2.0 8.0 0.00 0.24 0.00 78 1019.3
20260506155008 40 200 4.0 11.0 0.00 0.24 0.00 78 1019.3
20260506154511 41 197 6.0 13.0 0.00 0.24 0.00 77 1019.3
20260506154007 41 157 6.0 13.0 0.00 0.24 0.00 76 1019.3
20260506153503 41 185 9.0 12.0 0.00 0.24 0.00 75 1019.3
20260506153009 42 202 7.0 13.0 0.00 0.24 0.00 74 1019.3
20260506152502 42 229 8.0 13.0 0.00 0.24 0.00 74 1019.3
20260506152006 42 256 3.0 9.0 0.00 0.24 0.00 74 1019.2
20260506151514 41 219 2.0 5.0 0.00 0.24 0.00 74 1019.2
20260506151003 41 185 0.0 4.0 0.00 0.24 0.00 74 1019.2
20260506150013 41 172 2.0 6.0 0.00 0.24 0.00 73 1019.4
20260506145508 41 196 2.0 6.0 0.00 0.24 0.00 73 1019.4
20260506145006 41 206 3.0 9.0 0.00 0.24 0.00 73 1019.3
20260506144509 42 229 3.0 10.0 0.00 0.24 0.00 73 1019.3
20260506144006 42 255 4.0 11.0 0.00 0.24 0.00 72 1019.3
20260506143506 42 223 6.0 12.0 0.00 0.24 0.00 72 1019.3
20260506143013 42 274 7.0 13.0 0.00 0.24 0.00 72 1019.3
20260506142503 42 243 8.0 15.0 0.00 0.24 0.00 72 1019.2
20260506142002 42 220 7.0 17.0 0.00 0.24 0.00 71 1019.1
20260506141504 42 246 11.0 17.0 0.00 0.24 0.00 72 1019.1
20260506141005 43 251 10.0 19.0 0.00 0.24 0.00 72 1019.1
20260506140505 43 229 14.0 19.0 0.00 0.24 0.00 71 1019.1
20260506140003 43 247 10.0 17.0 0.00 0.24 0.00 72 1019.1
20260506135504 43 248 8.0 16.0 0.00 0.24 0.24 74 1019.2
20260506135002 44 211 10.0 16.0 0.00 0.24 0.24 74 1019.1
20260506134506 44 235 8.0 18.0 0.00 0.24 0.24 74 1018.9
20260506134002 44 245 11.0 21.0 0.00 0.24 0.24 73 1018.9
20260506133004 45 237 8.0 19.0 0.00 0.24 0.24 74 1018.9
20260506131503 45 236 7.0 17.0 0.00 0.24 0.24 75 1018.8
20260506130506 45 259 11.0 16.0 0.00 0.24 0.24 77 1018.6
20260506130008 46 268 8.0 14.0 0.00 0.24 0.24 76 1018.6
20260506125502 46 256 8.0 15.0 0.00 0.24 0.24 76 1018.6
20260506125005 46 250 9.0 15.0 0.00 0.24 0.24 77 1018.7
20260506124513 46 237 9.0 15.0 0.00 0.24 0.24 77 1018.7
20260506124002 45 251 7.0 12.0 0.00 0.24 0.24 78 1018.7
20260506122507 45 241 9.0 17.0 0.00 0.24 0.24 79 1018.7
20260506122003 45 256 11.0 17.0 0.00 0.24 0.24 79 1018.7
20260506121505 45 239 8.0 14.0 0.00 0.24 0.24 80 1018.6
20260506121003 45 226 9.0 15.0 0.00 0.24 0.24 81 1018.7
20260506120004 45 258 9.0 17.0 0.00 0.24 0.24 82 1018.6
20260506115503 45 266 9.0 17.0 0.01 0.24 0.24 83 1018.7
20260506115007 45 237 9.0 17.0 0.03 0.24 0.24 83 1018.6
20260506114503 45 247 10.0 20.0 0.03 0.24 0.24 84 1018.6
20260506114006 45 256 8.0 20.0 0.03 0.24 0.24 84 1018.6
20260506113503 45 265 9.0 19.0 0.04 0.24 0.24 85 1018.6
20260506113004 45 228 10.0 19.0 0.04 0.24 0.24 85 1018.6
20260506111004 45 224 12.0 25.0 0.09 0.23 0.23 85 1018.8
20260506110504 45 202 16.0 29.0 0.18 0.23 0.23 85 1018.6
20260506110006 45 229 16.0 35.0 0.22 0.23 0.23 85 1018.6
20260506105507 46 185 19.0 35.0 0.21 0.22 0.22 85 1018.5
20260506105004 48 257 11.0 18.0 0.19 0.21 0.21 86 1018.2
20260506104509 48 223 8.0 17.0 0.19 0.21 0.21 86 1018.1
20260506104004 48 225 7.0 18.0 0.18 0.20 0.20 86 1018.0
20260506103508 48 255 11.0 18.0 0.18 0.19 0.19 86 1018.0
20260506103018 49 259 10.0 17.0 0.18 0.19 0.19 85 1017.9
20260506102504 48 247 9.0 17.0 0.17 0.18 0.18 85 1017.8
20260506101506 48 235 5.0 15.0 0.16 0.17 0.17 84 1017.8
20260506101008 49 243 8.0 16.0 0.14 0.14 0.14 82 1017.9
20260506100504 51 206 10.0 17.0 0.05 0.05 0.05 83 1017.8
20260506100005 52 313 7.0 18.0 0.01 0.01 0.01 84 1016.9
20260506095504 51 354 7.0 18.0 0.01 0.01 0.01 84 1016.4
20260506095005 51 359 10.0 15.0 0.01 0.01 0.01 84 1016.4
20260506094506 51 341 8.0 19.0 0.01 0.01 0.01 84 1016.5
20260506094003 51 353 10.0 19.0 0.01 0.01 0.01 83 1016.6
20260506093507 51 16 11.0 19.0 0.01 0.01 0.01 83 1016.7
20260506093013 51 351 13.0 19.0 0.01 0.01 0.01 83 1016.8
20260506092507 51 345 11.0 18.0 0.01 0.01 0.01 83 1016.9
20260506092004 52 342 11.0 19.0 0.01 0.01 0.01 82 1016.8
20260506091517 52 340 12.0 20.0 0.00 0.00 0.00 82 1016.9
20260506091004 52 330 13.0 22.0 0.00 0.00 0.00 81 1016.9
20260506090501 52 324 15.0 22.0 0.00 0.00 0.00 80 1016.9
20260506090015 52 343 14.0 24.0 0.00 0.00 0.00 80 1016.8
20260506085505 53 331 13.0 24.0 0.00 0.00 0.00 78 1016.6
20260506085008 53 1 14.0 24.0 0.00 0.00 0.00 76 1016.5